Change the Weather History Date:

Wednesday, September 5, 2012

  Actual Average Record
Temperature  
Mean Temperature 81 °F -  
Max Temperature 87 °F 78 °F 87 °F (2012)
Min Temperature 74 °F 59 °F 50 °F (1997)
Cooling Degree Days 16    
Month to date cooling degree days 69  
Year to date cooling degree days 1205  
Growing Degree Days 30 (Base 50)    
Moisture  
Dew Point 70 °F    
Average Humidity 72    
Maximum Humidity 93    
Minimum Humidity 50    
Precipitation  
Precipitation 0.00 in - - ()
Month to date precipitation 0.23  
Year to date precipitation 24.07  
Sea Level Pressure  
Sea Level Pressure 29.85 in    
Wind  
Wind Speed 5 mph (SSW)    
Max Wind Speed 9 mph    
Max Gust Speed 14 mph    
Visibility 10 miles    
Events      
Averages and records for this station are not official NWS values.
T = Trace of Precipitation, MM = Missing Value Source: NWS Daily Summary

Daily Weather History Graph

Daily Weather History Graph

Search for Another Location

Airport or City:

Trip Planner

Search our weather history database for the weather conditions in past years. The results will help you decide how hot, cold, wet, or windy it might be!

Date:

Astronomy

Sep. 05, 2012 Rise Set
Actual Time 6:43 AM EDT 7:34 PM EDT
Civil Twilight 6:15 AM EDT 8:02 PM EDT
Nautical Twilight 5:43 AM EDT 8:34 PM EDT
Astronomical Twilight 5:09 AM EDT 9:08 PM EDT
Moon 10:04 PM EDT (9/5) 11:44 AM EDT (9/5)
Length of Visible Light 13h 46m
Length of Day
12h 51m
Waning Gibbous, 76% of the Moon is Illuminated
Sep 5
Waning Gibbous
Sep 8
Last Quarter
Sep 15
New
Sep 22
First Quarter
Sep 29
Full

Hourly Weather History & Observations

Time (EDT) Temp. Heat Index Dew Point Humidity Pressure Visibility Wind Dir Wind Speed Gust Speed Precip Events Conditions
12:53 AM 77.0 °F - 71.1 °F 82% 29.84 in 10.0 mi South 6.9 mph - N/A   Scattered Clouds
1:53 AM 75.9 °F - 71.1 °F 85% 29.83 in 10.0 mi South 8.1 mph - N/A   Partly Cloudy
2:53 AM 75.0 °F - 71.1 °F 87% 29.83 in 10.0 mi South 6.9 mph - N/A   Partly Cloudy
3:53 AM 73.9 °F - 71.1 °F 91% 29.84 in 9.0 mi South 5.8 mph - N/A   Clear
4:53 AM 73.9 °F - 70.0 °F 87% 29.84 in 9.0 mi South 5.8 mph - N/A   Mostly Cloudy
5:53 AM 73.9 °F - 70.0 °F 87% 29.84 in 10.0 mi SW 3.5 mph - N/A   Scattered Clouds
6:53 AM 73.9 °F - 70.0 °F 87% 29.85 in 10.0 mi South 5.8 mph - N/A   Overcast
7:53 AM 73.9 °F - 70.0 °F 87% 29.86 in 10.0 mi SSW 4.6 mph - N/A   Overcast
8:53 AM 75.9 °F - 70.0 °F 82% 29.86 in 10.0 mi SW 4.6 mph - N/A   Overcast
9:53 AM 77.0 °F - 71.1 °F 82% 29.88 in 10.0 mi SW 5.8 mph - N/A   Overcast
10:53 AM 79.0 °F - 70.0 °F 74% 29.88 in 10.0 mi Calm Calm - N/A   Mostly Cloudy
11:33 AM 82.4 °F 87.2 °F 71.6 °F 70% 29.87 in 10.0 mi Calm Calm - N/A   Mostly Cloudy
11:53 AM 82.0 °F 86.3 °F 71.1 °F 69% 29.87 in 10.0 mi WSW 3.5 mph - N/A   Scattered Clouds
12:53 PM 82.9 °F 87.0 °F 70.0 °F 65% 29.87 in 10.0 mi WSW 3.5 mph - N/A   Mostly Cloudy
1:53 PM 82.9 °F 86.5 °F 69.1 °F 63% 29.85 in 10.0 mi NNW 5.8 mph - N/A   Mostly Cloudy
2:53 PM 86.0 °F 90.7 °F 70.0 °F 59% 29.82 in 10.0 mi WNW 5.8 mph - N/A   Partly Cloudy
3:53 PM 87.1 °F 90.6 °F 68.0 °F 53% 29.82 in 10.0 mi Calm Calm - N/A   Clear
4:53 PM 87.1 °F 89.9 °F 66.9 °F 51% 29.82 in 10.0 mi Calm Calm - N/A   Scattered Clouds
5:53 PM 87.1 °F 89.9 °F 66.9 °F 51% 29.82 in 10.0 mi Calm Calm - N/A   Clear
6:53 PM 84.0 °F 87.8 °F 69.1 °F 61% 29.83 in 10.0 mi NE 6.9 mph - N/A   Clear
7:53 PM 81.0 °F 84.4 °F 70.0 °F 69% 29.85 in 10.0 mi East 6.9 mph - N/A   Clear
8:53 PM 78.1 °F - 70.0 °F 76% 29.86 in 10.0 mi ENE 6.9 mph - N/A   Clear
9:53 PM 75.9 °F - 69.1 °F 79% 29.88 in 10.0 mi NE 6.9 mph - N/A   Clear
10:53 PM 75.9 °F - 68.0 °F 76% 29.88 in 10.0 mi ENE 3.5 mph - N/A   Overcast
11:53 PM 75.0 °F - 69.1 °F 82% 29.88 in 10.0 mi North 3.5 mph - N/A   Scattered Clouds